User: anonymous   Login
Location: NJAA Observatory
(40.6819°N, 74.8979°W)
Time: 17:47:10
(UTC-04:00)
Language:

Meteor 1-28 Rocket - Orbit

View from above orbital plane
View from above orbital plane
View from above satellite
View from above satellite

Ground track
Ground track

The orbit data is extracted from the following two-line orbital elements,

1 10114U 77057B   17265.91866909 +.00000311 +00000-0 +18986-4 0  9993
2 10114 097.2050 083.3316 0013487 344.6136 015.4686 15.16814580198160
Epoch (UTC): 22 September 2017 22:02:53
Eccentricity: 0.0013487
inclination: 97.2050°
perigee height: 506 km
apogee height: 525 km
right ascension of ascending node: 83.3316°
argument of perigee: 344.6136°
revolutions per day: 15.16814580
mean anomaly at epoch: 15.4686°
orbit number at epoch: 19816

The dashed part of the orbit path shows where the satellite is in the earth's shadow,  

DLR